owner,sensor,date,latitude,longitude,vertical_datum,sea_water_practical_salinity,qcFlag 
NERRS,ioos:station:NOAA.NERRS:gndbcwq:1,2012-07-09T14:00:00Z,30.3836,-88.4364,0.0,19.2,1111122 
NERRS,ioos:station:NOAA.NERRS:gndbcwq:1,2012-07-09T15:00:00Z,30.3836,-88.4364,0.0,21.8,1111122 
NERRS,ioos:station:NOAA.NERRS:gndbcwq:1,2012-07-09T16:00:00Z,30.3836,-88.4364,0.0,21.5,1111122 
NERRS,ioos:station:NOAA.NERRS:gndbcwq:1,2012-07-09T17:00:00Z,30.3836,-88.4364,0.0,19.6,1111122 
NERRS,ioos:station:NOAA.NERRS:gndbcwq:1,2012-07-09T18:00:00Z,30.3836,-88.4364,0.0,19.7,1111122 
NERRS,ioos:station:NOAA.NERRS:gndbcwq:1,2012-07-09T19:00:00Z,30.3836,-88.4364,0.0,18.9,1111122 
NERRS,ioos:station:NOAA.NERRS:gndbcwq:1,2012-07-09T20:00:00Z,30.3836,-88.4364,0.0,17.0,1111122 
NERRS,ioos:station:NOAA.NERRS:gndbcwq:1,2012-07-09T21:00:00Z,30.3836,-88.4364,0.0,18.4,1111122 
NERRS,ioos:station:NOAA.NERRS:gndbcwq:1,2012-07-09T22:00:00Z,30.3836,-88.4364,0.0,18.1,1111122 
NERRS,ioos:station:NOAA.NERRS:gndbcwq:1,2012-07-09T23:00:00Z,30.3836,-88.4364,0.0,18.4,1111122 
NERRS,ioos:station:NOAA.NERRS:gndbcwq:1,2012-07-10T00:00:00Z,30.3836,-88.4364,0.0,19.2,1111122 
NERRS,ioos:station:NOAA.NERRS:gndbcwq:1,2012-07-10T01:00:00Z,30.3836,-88.4364,0.0,19.6,1111122 
NERRS,ioos:station:NOAA.NERRS:gndbcwq:1,2012-07-10T02:00:00Z,30.3836,-88.4364,0.0,18.1,1111122 
NERRS,ioos:station:NOAA.NERRS:gndbcwq:1,2012-07-10T03:00:00Z,30.3836,-88.4364,0.0,20.5,1111122 
NERRS,ioos:station:NOAA.NERRS:gndbcwq:1,2012-07-10T04:00:00Z,30.3836,-88.4364,0.0,22.8,1111122 
NERRS,ioos:station:NOAA.NERRS:gndbcwq:1,2012-07-10T05:00:00Z,30.3836,-88.4364,0.0,20.5,1111122 
NERRS,ioos:station:NOAA.NERRS:gndbcwq:1,2012-07-10T06:00:00Z,30.3836,-88.4364,0.0,21.0,1111122 
NERRS,ioos:station:NOAA.NERRS:gndbcwq:1,2012-07-10T07:00:00Z,30.3836,-88.4364,0.0,21.4,1111122 
NERRS,ioos:station:NOAA.NERRS:gndbcwq:1,2012-07-10T08:00:00Z,30.3836,-88.4364,0.0,21.0,1111122 
NERRS,ioos:station:NOAA.NERRS:gndbcwq:1,2012-07-10T09:00:00Z,30.3836,-88.4364,0.0,20.4,1111122 
NERRS,ioos:station:NOAA.NERRS:gndbcwq:1,2012-07-10T10:00:00Z,30.3836,-88.4364,0.0,18.3,1111122 
NERRS,ioos:station:NOAA.NERRS:gndbcwq:1,2012-07-10T11:00:00Z,30.3836,-88.4364,0.0,17.2,1111122 
NERRS,ioos:station:NOAA.NERRS:gndbcwq:1,2012-07-10T12:00:00Z,30.3836,-88.4364,0.0,18.5,1111122 
NERRS,ioos:station:NOAA.NERRS:gndbcwq:1,2012-07-10T13:00:00Z,30.3836,-88.4364,0.0,19.3,1111122 
NERRS,ioos:station:NOAA.NERRS:gndbcwq:1,2012-07-10T14:00:00Z,30.3836,-88.4364,0.0,20.3,1111122 
NERRS,ioos:station:NOAA.NERRS:gndbcwq:1,2012-07-10T15:00:00Z,30.3836,-88.4364,0.0,20.3,1111122 
NERRS,ioos:station:NOAA.NERRS:gndbcwq:1,2012-07-10T17:00:00Z,30.3836,-88.4364,0.0,18.3,1111122 
NERRS,ioos:station:NOAA.NERRS:gndbcwq:1,2012-07-10T19:00:00Z,30.3836,-88.4364,0.0,18.0,1111122 
NERRS,ioos:station:NOAA.NERRS:gndbcwq:1,2012-07-10T20:00:00Z,30.3836,-88.4364,0.0,18.9,1111122 
NERRS,ioos:station:NOAA.NERRS:gndbcwq:1,2012-07-10T21:00:00Z,30.3836,-88.4364,0.0,19.0,1111122 
NERRS,ioos:station:NOAA.NERRS:gndbcwq:1,2012-07-10T22:00:00Z,30.3836,-88.4364,0.0,18.5,1111122 
NERRS,ioos:station:NOAA.NERRS:gndbcwq:1,2012-07-10T23:00:00Z,30.3836,-88.4364,0.0,17.9,1111122 
NERRS,ioos:station:NOAA.NERRS:gndbcwq:1,2012-07-11T00:00:00Z,30.3836,-88.4364,0.0,18.4,1111122 
NERRS,ioos:station:NOAA.NERRS:gndbcwq:1,2012-07-11T01:00:00Z,30.3836,-88.4364,0.0,18.8,1111122 
NERRS,ioos:station:NOAA.NERRS:gndbcwq:1,2012-07-11T02:00:00Z,30.3836,-88.4364,0.0,18.9,1111122 
NERRS,ioos:station:NOAA.NERRS:gndbcwq:1,2012-07-11T03:00:00Z,30.3836,-88.4364,0.0,19.1,1111122 
NERRS,ioos:station:NOAA.NERRS:gndbcwq:1,2012-07-11T04:00:00Z,30.3836,-88.4364,0.0,18.6,1111122 
NERRS,ioos:station:NOAA.NERRS:gndbcwq:1,2012-07-11T05:00:00Z,30.3836,-88.4364,0.0,19.5,1111122 
NERRS,ioos:station:NOAA.NERRS:gndbcwq:1,2012-07-11T06:00:00Z,30.3836,-88.4364,0.0,19.9,1111122 
NERRS,ioos:station:NOAA.NERRS:gndbcwq:1,2012-07-11T07:00:00Z,30.3836,-88.4364,0.0,20.4,1111122 
NERRS,ioos:station:NOAA.NERRS:gndbcwq:1,2012-07-11T08:00:00Z,30.3836,-88.4364,0.0,21.0,1111122 
NERRS,ioos:station:NOAA.NERRS:gndbcwq:1,2012-07-11T09:00:00Z,30.3836,-88.4364,0.0,21.8,1111122 
NERRS,ioos:station:NOAA.NERRS:gndbcwq:1,2012-07-11T10:00:00Z,30.3836,-88.4364,0.0,22.6,1111122 
NERRS,ioos:station:NOAA.NERRS:gndbcwq:1,2012-07-11T11:00:00Z,30.3836,-88.4364,0.0,21.0,1111122 
NERRS,ioos:station:NOAA.NERRS:gndbcwq:1,2012-07-11T12:00:00Z,30.3836,-88.4364,0.0,21.1,1111122 
NERRS,ioos:station:NOAA.NERRS:gndbcwq:1,2012-07-11T13:00:00Z,30.3836,-88.4364,0.0,19.7,1111122 
NERRS,ioos:station:NOAA.NERRS:gndbcwq:1,2012-07-11T14:00:00Z,30.3836,-88.4364,0.0,19.7,1111122 
NERRS,ioos:station:NOAA.NERRS:gndbcwq:1,2012-07-12T02:00:00Z,30.3836,-88.4364,0.0,16.7,1111122 
NERRS,ioos:station:NOAA.NERRS:gndbcwq:1,2012-07-12T03:00:00Z,30.3836,-88.4364,0.0,16.8,1111122 
NERRS,ioos:station:NOAA.NERRS:gndbcwq:1,2012-07-12T04:00:00Z,30.3836,-88.4364,0.0,18.0,1111122 
NERRS,ioos:station:NOAA.NERRS:gndbcwq:1,2012-07-12T05:00:00Z,30.3836,-88.4364,0.0,19.8,1111122 
NERRS,ioos:station:NOAA.NERRS:gndbcwq:1,2012-07-12T06:00:00Z,30.3836,-88.4364,0.0,20.2,1111122 
NERRS,ioos:station:NOAA.NERRS:gndbcwq:1,2012-07-12T07:00:00Z,30.3836,-88.4364,0.0,20.3,1111122 
NERRS,ioos:station:NOAA.NERRS:gndbcwq:1,2012-07-12T08:00:00Z,30.3836,-88.4364,0.0,20.6,1111122 
NERRS,ioos:station:NOAA.NERRS:gndbcwq:1,2012-07-12T09:00:00Z,30.3836,-88.4364,0.0,20.9,1111122 
NERRS,ioos:station:NOAA.NERRS:gndbcwq:1,2012-07-12T10:00:00Z,30.3836,-88.4364,0.0,22.5,1111122 
NERRS,ioos:station:NOAA.NERRS:gndbcwq:1,2012-07-12T11:00:00Z,30.3836,-88.4364,0.0,22.2,1111122 
NERRS,ioos:station:NOAA.NERRS:gndbcwq:1,2012-07-12T12:00:00Z,30.3836,-88.4364,0.0,21.3,1111122 
NERRS,ioos:station:NOAA.NERRS:gndbcwq:1,2012-07-12T13:00:00Z,30.3836,-88.4364,0.0,23.6,1111122 
NERRS,ioos:station:NOAA.NERRS:gndbcwq:1,2012-07-12T14:00:00Z,30.3836,-88.4364,0.0,20.8,1111122 
NERRS,ioos:station:NOAA.NERRS:gndbcwq:1,2012-07-12T15:00:00Z,30.3836,-88.4364,0.0,20.8,1111122 
NERRS,ioos:station:NOAA.NERRS:gndbcwq:1,2012-07-12T16:00:00Z,30.3836,-88.4364,0.0,20.3,1111122 
NERRS,ioos:station:NOAA.NERRS:gndbcwq:1,2012-07-12T17:00:00Z,30.3836,-88.4364,0.0,19.2,1111122 
NERRS,ioos:station:NOAA.NERRS:gndbcwq:1,2012-07-12T18:00:00Z,30.3836,-88.4364,0.0,18.2,1111122 
NERRS,ioos:station:NOAA.NERRS:gndbcwq:1,2012-07-12T19:00:00Z,30.3836,-88.4364,0.0,17.9,1111122 
NERRS,ioos:station:NOAA.NERRS:gndbcwq:1,2012-07-12T20:00:00Z,30.3836,-88.4364,0.0,17.7,1111122 
NERRS,ioos:station:NOAA.NERRS:gndbcwq:1,2012-07-12T21:00:00Z,30.3836,-88.4364,0.0,17.8,1111122 
NERRS,ioos:station:NOAA.NERRS:gndbcwq:1,2012-07-12T22:00:00Z,30.3836,-88.4364,0.0,17.8,1111122 
NERRS,ioos:station:NOAA.NERRS:gndbcwq:1,2012-07-12T23:00:00Z,30.3836,-88.4364,0.0,18.0,1111122 
NERRS,ioos:station:NOAA.NERRS:gndbcwq:1,2012-07-13T00:00:00Z,30.3836,-88.4364,0.0,17.7,1111122 
NERRS,ioos:station:NOAA.NERRS:gndbcwq:1,2012-07-13T01:00:00Z,30.3836,-88.4364,0.0,18.3,1111122 
NERRS,ioos:station:NOAA.NERRS:gndbcwq:1,2012-07-13T02:00:00Z,30.3836,-88.4364,0.0,18.2,1111122 
NERRS,ioos:station:NOAA.NERRS:gndbcwq:1,2012-07-13T03:00:00Z,30.3836,-88.4364,0.0,18.4,1111122 
NERRS,ioos:station:NOAA.NERRS:gndbcwq:1,2012-07-13T04:00:00Z,30.3836,-88.4364,0.0,18.0,1111122 
NERRS,ioos:station:NOAA.NERRS:gndbcwq:1,2012-07-13T05:00:00Z,30.3836,-88.4364,0.0,18.6,1111122 
NERRS,ioos:station:NOAA.NERRS:gndbcwq:1,2012-07-13T06:00:00Z,30.3836,-88.4364,0.0,19.4,1111122 
NERRS,ioos:station:NOAA.NERRS:gndbcwq:1,2012-07-13T07:00:00Z,30.3836,-88.4364,0.0,20.0,1111122 
NERRS,ioos:station:NOAA.NERRS:gndbcwq:1,2012-07-13T08:00:00Z,30.3836,-88.4364,0.0,20.8,1111122 
NERRS,ioos:station:NOAA.NERRS:gndbcwq:1,2012-07-13T09:00:00Z,30.3836,-88.4364,0.0,21.8,1111122 
NERRS,ioos:station:NOAA.NERRS:gndbcwq:1,2012-07-13T10:00:00Z,30.3836,-88.4364,0.0,23.0,1111122 
NERRS,ioos:station:NOAA.NERRS:gndbcwq:1,2012-07-13T11:00:00Z,30.3836,-88.4364,0.0,23.7,1111122 
NERRS,ioos:station:NOAA.NERRS:gndbcwq:1,2012-07-13T12:00:00Z,30.3836,-88.4364,0.0,23.7,1111122 
NERRS,ioos:station:NOAA.NERRS:gndbcwq:1,2012-07-13T13:00:00Z,30.3836,-88.4364,0.0,23.7,1111122 
NERRS,ioos:station:NOAA.NERRS:gndbcwq:1,2012-07-13T14:00:00Z,30.3836,-88.4364,0.0,23.8,1111122 
NERRS,ioos:station:NOAA.NERRS:gndbcwq:1,2012-07-13T15:00:00Z,30.3836,-88.4364,0.0,23.3,1111122 
NERRS,ioos:station:NOAA.NERRS:gndbcwq:1,2012-07-13T16:00:00Z,30.3836,-88.4364,0.0,21.8,1111122 
NERRS,ioos:station:NOAA.NERRS:gndbcwq:1,2012-07-13T17:00:00Z,30.3836,-88.4364,0.0,19.6,1111122 
NERRS,ioos:station:NOAA.NERRS:gndbcwq:1,2012-07-13T18:00:00Z,30.3836,-88.4364,0.0,19.1,1111122 
NERRS,ioos:station:NOAA.NERRS:gndbcwq:1,2012-07-13T19:00:00Z,30.3836,-88.4364,0.0,18.5,1111122 
NERRS,ioos:station:NOAA.NERRS:gndbcwq:1,2012-07-13T20:00:00Z,30.3836,-88.4364,0.0,17.9,1111122 
NERRS,ioos:station:NOAA.NERRS:gndbcwq:1,2012-07-13T21:00:00Z,30.3836,-88.4364,0.0,17.8,1111122 
NERRS,ioos:station:NOAA.NERRS:gndbcwq:1,2012-07-13T22:00:00Z,30.3836,-88.4364,0.0,17.8,1111122 
NERRS,ioos:station:NOAA.NERRS:gndbcwq:1,2012-07-13T23:00:00Z,30.3836,-88.4364,0.0,18.3,1111122 
NERRS,ioos:station:NOAA.NERRS:gndbcwq:1,2012-07-14T00:00:00Z,30.3836,-88.4364,0.0,16.9,1111122 
NERRS,ioos:station:NOAA.NERRS:gndbcwq:1,2012-07-14T01:00:00Z,30.3836,-88.4364,0.0,18.6,1111122 
NERRS,ioos:station:NOAA.NERRS:gndbcwq:1,2012-07-14T02:00:00Z,30.3836,-88.4364,0.0,17.2,1111122 
NERRS,ioos:station:NOAA.NERRS:gndbcwq:1,2012-07-14T03:00:00Z,30.3836,-88.4364,0.0,19.1,1111122 
NERRS,ioos:station:NOAA.NERRS:gndbcwq:1,2012-07-14T04:00:00Z,30.3836,-88.4364,0.0,17.7,1111122 
NERRS,ioos:station:NOAA.NERRS:gndbcwq:1,2012-07-14T05:00:00Z,30.3836,-88.4364,0.0,19.2,1111122 
NERRS,ioos:station:NOAA.NERRS:gndbcwq:1,2012-07-14T06:00:00Z,30.3836,-88.4364,0.0,19.9,1111122 
NERRS,ioos:station:NOAA.NERRS:gndbcwq:1,2012-07-14T07:00:00Z,30.3836,-88.4364,0.0,20.8,1111122 
NERRS,ioos:station:NOAA.NERRS:gndbcwq:1,2012-07-14T08:00:00Z,30.3836,-88.4364,0.0,22.4,1111122 
NERRS,ioos:station:NOAA.NERRS:gndbcwq:1,2012-07-14T09:00:00Z,30.3836,-88.4364,0.0,24.0,1111122 
NERRS,ioos:station:NOAA.NERRS:gndbcwq:1,2012-07-14T10:00:00Z,30.3836,-88.4364,0.0,25.2,1111122 
NERRS,ioos:station:NOAA.NERRS:gndbcwq:1,2012-07-14T11:00:00Z,30.3836,-88.4364,0.0,26.5,1111122 
NERRS,ioos:station:NOAA.NERRS:gndbcwq:1,2012-07-14T12:00:00Z,30.3836,-88.4364,0.0,26.7,1111122 
NERRS,ioos:station:NOAA.NERRS:gndbcwq:1,2012-07-14T13:00:00Z,30.3836,-88.4364,0.0,26.3,1111122 
NERRS,ioos:station:NOAA.NERRS:gndbcwq:1,2012-07-14T14:00:00Z,30.3836,-88.4364,0.0,26.1,1111122 
NERRS,ioos:station:NOAA.NERRS:gndbcwq:1,2012-07-14T15:00:00Z,30.3836,-88.4364,0.0,25.2,1111122 
NERRS,ioos:station:NOAA.NERRS:gndbcwq:1,2012-07-14T16:00:00Z,30.3836,-88.4364,0.0,24.0,1111122 
NERRS,ioos:station:NOAA.NERRS:gndbcwq:1,2012-07-14T17:00:00Z,30.3836,-88.4364,0.0,22.5,1111122 
NERRS,ioos:station:NOAA.NERRS:gndbcwq:1,2012-07-14T18:00:00Z,30.3836,-88.4364,0.0,19.6,1111122 
NERRS,ioos:station:NOAA.NERRS:gndbcwq:1,2012-07-14T19:00:00Z,30.3836,-88.4364,0.0,17.7,1111122 
NERRS,ioos:station:NOAA.NERRS:gndbcwq:1,2012-07-14T20:00:00Z,30.3836,-88.4364,0.0,17.1,1111122 
NERRS,ioos:station:NOAA.NERRS:gndbcwq:1,2012-07-14T21:00:00Z,30.3836,-88.4364,0.0,16.7,1111122 
NERRS,ioos:station:NOAA.NERRS:gndbcwq:1,2012-07-14T22:00:00Z,30.3836,-88.4364,0.0,16.6,1111122 
NERRS,ioos:station:NOAA.NERRS:gndbcwq:1,2012-07-14T23:00:00Z,30.3836,-88.4364,0.0,16.8,1111122 
NERRS,ioos:station:NOAA.NERRS:gndbcwq:1,2012-07-15T00:00:00Z,30.3836,-88.4364,0.0,16.7,1111122 
NERRS,ioos:station:NOAA.NERRS:gndbcwq:1,2012-07-15T01:00:00Z,30.3836,-88.4364,0.0,16.7,1111122 
NERRS,ioos:station:NOAA.NERRS:gndbcwq:1,2012-07-15T02:00:00Z,30.3836,-88.4364,0.0,16.4,1111122 
NERRS,ioos:station:NOAA.NERRS:gndbcwq:1,2012-07-15T03:00:00Z,30.3836,-88.4364,0.0,17.3,1111122 
NERRS,ioos:station:NOAA.NERRS:gndbcwq:1,2012-07-15T04:00:00Z,30.3836,-88.4364,0.0,17.1,1111122 
NERRS,ioos:station:NOAA.NERRS:gndbcwq:1,2012-07-15T05:00:00Z,30.3836,-88.4364,0.0,17.5,1111122 
NERRS,ioos:station:NOAA.NERRS:gndbcwq:1,2012-07-15T06:00:00Z,30.3836,-88.4364,0.0,18.0,1111122 
NERRS,ioos:station:NOAA.NERRS:gndbcwq:1,2012-07-15T07:00:00Z,30.3836,-88.4364,0.0,18.6,1111122 
NERRS,ioos:station:NOAA.NERRS:gndbcwq:1,2012-07-15T08:00:00Z,30.3836,-88.4364,0.0,19.3,1111122 
NERRS,ioos:station:NOAA.NERRS:gndbcwq:1,2012-07-15T09:00:00Z,30.3836,-88.4364,0.0,21.4,1111122 
NERRS,ioos:station:NOAA.NERRS:gndbcwq:1,2012-07-15T10:00:00Z,30.3836,-88.4364,0.0,24.8,1111122 
NERRS,ioos:station:NOAA.NERRS:gndbcwq:1,2012-07-15T11:00:00Z,30.3836,-88.4364,0.0,27.2,1111122 
NERRS,ioos:station:NOAA.NERRS:gndbcwq:1,2012-07-15T12:00:00Z,30.3836,-88.4364,0.0,27.5,1111122 
NERRS,ioos:station:NOAA.NERRS:gndbcwq:1,2012-07-15T13:00:00Z,30.3836,-88.4364,0.0,27.4,1111122 
NERRS,ioos:station:NOAA.NERRS:gndbcwq:1,2012-07-15T14:00:00Z,30.3836,-88.4364,0.0,27.3,1111122 
NERRS,ioos:station:NOAA.NERRS:gndbcwq:1,2012-07-15T15:00:00Z,30.3836,-88.4364,0.0,26.6,1111122 
NERRS,ioos:station:NOAA.NERRS:gndbcwq:1,2012-07-15T16:00:00Z,30.3836,-88.4364,0.0,25.7,1111122 
NERRS,ioos:station:NOAA.NERRS:gndbcwq:1,2012-07-15T17:00:00Z,30.3836,-88.4364,0.0,24.8,1111122 
NERRS,ioos:station:NOAA.NERRS:gndbcwq:1,2012-07-15T18:00:00Z,30.3836,-88.4364,0.0,22.8,1111122 
NERRS,ioos:station:NOAA.NERRS:gndbcwq:1,2012-07-15T19:00:00Z,30.3836,-88.4364,0.0,21.3,1111122 
NERRS,ioos:station:NOAA.NERRS:gndbcwq:1,2012-07-15T20:00:00Z,30.3836,-88.4364,0.0,19.3,1111122 
NERRS,ioos:station:NOAA.NERRS:gndbcwq:1,2012-07-15T21:00:00Z,30.3836,-88.4364,0.0,18.4,1111122 
NERRS,ioos:station:NOAA.NERRS:gndbcwq:1,2012-07-15T22:00:00Z,30.3836,-88.4364,0.0,17.4,1111122 
NERRS,ioos:station:NOAA.NERRS:gndbcwq:1,2012-07-15T23:00:00Z,30.3836,-88.4364,0.0,15.6,1111122 
NERRS,ioos:station:NOAA.NERRS:gndbcwq:1,2012-07-16T00:00:00Z,30.3836,-88.4364,0.0,14.6,1111122 
NERRS,ioos:station:NOAA.NERRS:gndbcwq:1,2012-07-16T01:00:00Z,30.3836,-88.4364,0.0,13.6,1111122 
NERRS,ioos:station:NOAA.NERRS:gndbcwq:1,2012-07-16T02:00:00Z,30.3836,-88.4364,0.0,15.8,1111122 
NERRS,ioos:station:NOAA.NERRS:gndbcwq:1,2012-07-16T03:00:00Z,30.3836,-88.4364,0.0,16.1,1111122 
NERRS,ioos:station:NOAA.NERRS:gndbcwq:1,2012-07-16T04:00:00Z,30.3836,-88.4364,0.0,16.0,1111122 
NERRS,ioos:station:NOAA.NERRS:gndbcwq:1,2012-07-16T05:00:00Z,30.3836,-88.4364,0.0,16.1,1111122 
NERRS,ioos:station:NOAA.NERRS:gndbcwq:1,2012-07-16T06:00:00Z,30.3836,-88.4364,0.0,16.5,1111122 
NERRS,ioos:station:NOAA.NERRS:gndbcwq:1,2012-07-16T07:00:00Z,30.3836,-88.4364,0.0,16.8,1111122 
NERRS,ioos:station:NOAA.NERRS:gndbcwq:1,2012-07-16T08:00:00Z,30.3836,-88.4364,0.0,17.9,1111122 
NERRS,ioos:station:NOAA.NERRS:gndbcwq:1,2012-07-16T09:00:00Z,30.3836,-88.4364,0.0,18.4,1111122 
NERRS,ioos:station:NOAA.NERRS:gndbcwq:1,2012-07-16T10:00:00Z,30.3836,-88.4364,0.0,19.4,1111122 
NERRS,ioos:station:NOAA.NERRS:gndbcwq:1,2012-07-16T11:00:00Z,30.3836,-88.4364,0.0,21.2,1111122 
NERRS,ioos:station:NOAA.NERRS:gndbcwq:1,2012-07-16T12:00:00Z,30.3836,-88.4364,0.0,23.2,1111122 
NERRS,ioos:station:NOAA.NERRS:gndbcwq:1,2012-07-16T13:00:00Z,30.3836,-88.4364,0.0,25.1,1111122 
NERRS,ioos:station:NOAA.NERRS:gndbcwq:1,2012-07-16T14:00:00Z,30.3836,-88.4364,0.0,25.7,1111122 
NERRS,ioos:station:NOAA.NERRS:gndbcwq:1,2012-07-16T15:00:00Z,30.3836,-88.4364,0.0,24.9,1111122 
NERRS,ioos:station:NOAA.NERRS:gndbcwq:1,2012-07-16T16:00:00Z,30.3836,-88.4364,0.0,24.0,1111122 
NERRS,ioos:station:NOAA.NERRS:gndbcwq:1,2012-07-16T17:00:00Z,30.3836,-88.4364,0.0,20.3,1111122 
NERRS,ioos:station:NOAA.NERRS:gndbcwq:1,2012-07-16T18:00:00Z,30.3836,-88.4364,0.0,19.0,1111122 
NERRS,ioos:station:NOAA.NERRS:gndbcwq:1,2012-07-16T19:00:00Z,30.3836,-88.4364,0.0,19.0,1111122 
NERRS,ioos:station:NOAA.NERRS:gndbcwq:1,2012-07-16T20:00:00Z,30.3836,-88.4364,0.0,17.9,1111122 
NERRS,ioos:station:NOAA.NERRS:gndbcwq:1,2012-07-16T21:00:00Z,30.3836,-88.4364,0.0,15.9,1111122 
NERRS,ioos:station:NOAA.NERRS:gndbcwq:1,2012-07-16T22:00:00Z,30.3836,-88.4364,0.0,14.7,1111122 
NERRS,ioos:station:NOAA.NERRS:gndbcwq:1,2012-07-16T23:00:00Z,30.3836,-88.4364,0.0,14.0,1111122 
NERRS,ioos:station:NOAA.NERRS:gndbcwq:1,2012-07-17T00:00:00Z,30.3836,-88.4364,0.0,13.1,1111122 
NERRS,ioos:station:NOAA.NERRS:gndbcwq:1,2012-07-17T01:00:00Z,30.3836,-88.4364,0.0,12.4,1111122 
NERRS,ioos:station:NOAA.NERRS:gndbcwq:1,2012-07-17T02:00:00Z,30.3836,-88.4364,0.0,12.1,1111122 
NERRS,ioos:station:NOAA.NERRS:gndbcwq:1,2012-07-17T03:00:00Z,30.3836,-88.4364,0.0,13.5,1111122 
NERRS,ioos:station:NOAA.NERRS:gndbcwq:1,2012-07-17T04:00:00Z,30.3836,-88.4364,0.0,15.3,1111122 
NERRS,ioos:station:NOAA.NERRS:gndbcwq:1,2012-07-17T05:00:00Z,30.3836,-88.4364,0.0,15.5,1111122 
NERRS,ioos:station:NOAA.NERRS:gndbcwq:1,2012-07-17T06:00:00Z,30.3836,-88.4364,0.0,15.8,1111122 
NERRS,ioos:station:NOAA.NERRS:gndbcwq:1,2012-07-17T07:00:00Z,30.3836,-88.4364,0.0,15.9,1111122 
NERRS,ioos:station:NOAA.NERRS:gndbcwq:1,2012-07-17T08:00:00Z,30.3836,-88.4364,0.0,16.4,1111122 
NERRS,ioos:station:NOAA.NERRS:gndbcwq:1,2012-07-17T09:00:00Z,30.3836,-88.4364,0.0,16.4,1111122 
NERRS,ioos:station:NOAA.NERRS:gndbcwq:1,2012-07-17T10:00:00Z,30.3836,-88.4364,0.0,17.6,1111122 
NERRS,ioos:station:NOAA.NERRS:gndbcwq:1,2012-07-17T11:00:00Z,30.3836,-88.4364,0.0,18.2,1111122 
NERRS,ioos:station:NOAA.NERRS:gndbcwq:1,2012-07-17T12:00:00Z,30.3836,-88.4364,0.0,20.9,1111122 
NERRS,ioos:station:NOAA.NERRS:gndbcwq:1,2012-07-17T13:00:00Z,30.3836,-88.4364,0.0,21.8,1111122 
NERRS,ioos:station:NOAA.NERRS:gndbcwq:1,2012-07-17T14:00:00Z,30.3836,-88.4364,0.0,23.9,1111122 
NERRS,ioos:station:NOAA.NERRS:gndbcwq:1,2012-07-17T15:00:00Z,30.3836,-88.4364,0.0,24.9,1111122 
NERRS,ioos:station:NOAA.NERRS:gndbcwq:1,2012-07-17T15:30:00Z,30.3836,-88.4364,0.0,22.7,1111122 
NERRS,ioos:station:NOAA.NERRS:gndbcwq:1,2012-07-17T18:00:00Z,30.3836,-88.4364,0.0,19.6,1111122 
NERRS,ioos:station:NOAA.NERRS:gndbcwq:1,2012-07-17T19:00:00Z,30.3836,-88.4364,0.0,17.2,1111122 
NERRS,ioos:station:NOAA.NERRS:gndbcwq:1,2012-07-17T20:00:00Z,30.3836,-88.4364,0.0,16.6,1111122 
NERRS,ioos:station:NOAA.NERRS:gndbcwq:1,2012-07-17T21:00:00Z,30.3836,-88.4364,0.0,16.8,1111122 
NERRS,ioos:station:NOAA.NERRS:gndbcwq:1,2012-07-17T22:00:00Z,30.3836,-88.4364,0.0,15.1,1111122 
NERRS,ioos:station:NOAA.NERRS:gndbcwq:1,2012-07-17T23:00:00Z,30.3836,-88.4364,0.0,14.3,1111122 
NERRS,ioos:station:NOAA.NERRS:gndbcwq:1,2012-07-18T00:00:00Z,30.3836,-88.4364,0.0,14.1,1111122 
NERRS,ioos:station:NOAA.NERRS:gndbcwq:1,2012-07-18T01:00:00Z,30.3836,-88.4364,0.0,13.6,1111122 
NERRS,ioos:station:NOAA.NERRS:gndbcwq:1,2012-07-18T02:00:00Z,30.3836,-88.4364,0.0,15.2,1111122 
NERRS,ioos:station:NOAA.NERRS:gndbcwq:1,2012-07-18T03:00:00Z,30.3836,-88.4364,0.0,15.0,1111122 
NERRS,ioos:station:NOAA.NERRS:gndbcwq:1,2012-07-18T04:00:00Z,30.3836,-88.4364,0.0,14.9,1111122 
NERRS,ioos:station:NOAA.NERRS:gndbcwq:1,2012-07-18T05:00:00Z,30.3836,-88.4364,0.0,13.6,1111122 
NERRS,ioos:station:NOAA.NERRS:gndbcwq:1,2012-07-18T06:00:00Z,30.3836,-88.4364,0.0,15.0,1111122 
NERRS,ioos:station:NOAA.NERRS:gndbcwq:1,2012-07-18T07:00:00Z,30.3836,-88.4364,0.0,16.5,1111122 
NERRS,ioos:station:NOAA.NERRS:gndbcwq:1,2012-07-18T08:00:00Z,30.3836,-88.4364,0.0,17.2,1111122 
NERRS,ioos:station:NOAA.NERRS:gndbcwq:1,2012-07-18T09:00:00Z,30.3836,-88.4364,0.0,18.1,1111122 
NERRS,ioos:station:NOAA.NERRS:gndbcwq:1,2012-07-18T10:00:00Z,30.3836,-88.4364,0.0,19.5,1111122 
NERRS,ioos:station:NOAA.NERRS:gndbcwq:1,2012-07-18T11:00:00Z,30.3836,-88.4364,0.0,19.9,1111122 
NERRS,ioos:station:NOAA.NERRS:gndbcwq:1,2012-07-18T12:00:00Z,30.3836,-88.4364,0.0,21.3,1111122 
NERRS,ioos:station:NOAA.NERRS:gndbcwq:1,2012-07-18T13:00:00Z,30.3836,-88.4364,0.0,22.7,1111122 
NERRS,ioos:station:NOAA.NERRS:gndbcwq:1,2012-07-18T14:00:00Z,30.3836,-88.4364,0.0,23.9,1111122 
NERRS,ioos:station:NOAA.NERRS:gndbcwq:1,2012-07-18T15:00:00Z,30.3836,-88.4364,0.0,24.8,1111122 
NERRS,ioos:station:NOAA.NERRS:gndbcwq:1,2012-07-18T16:00:00Z,30.3836,-88.4364,0.0,24.7,1111122 
NERRS,ioos:station:NOAA.NERRS:gndbcwq:1,2012-07-18T17:00:00Z,30.3836,-88.4364,0.0,21.2,1111122 
NERRS,ioos:station:NOAA.NERRS:gndbcwq:1,2012-07-18T18:00:00Z,30.3836,-88.4364,0.0,20.5,1111122 
NERRS,ioos:station:NOAA.NERRS:gndbcwq:1,2012-07-18T19:00:00Z,30.3836,-88.4364,0.0,20.3,1111122 
NERRS,ioos:station:NOAA.NERRS:gndbcwq:1,2012-07-18T20:00:00Z,30.3836,-88.4364,0.0,19.7,1111122 
NERRS,ioos:station:NOAA.NERRS:gndbcwq:1,2012-07-18T21:00:00Z,30.3836,-88.4364,0.0,15.4,1111122 
NERRS,ioos:station:NOAA.NERRS:gndbcwq:1,2012-07-18T22:00:00Z,30.3836,-88.4364,0.0,13.3,1111122 
NERRS,ioos:station:NOAA.NERRS:gndbcwq:1,2012-07-18T23:00:00Z,30.3836,-88.4364,0.0,12.2,1111122 
NERRS,ioos:station:NOAA.NERRS:gndbcwq:1,2012-07-19T00:00:00Z,30.3836,-88.4364,0.0,11.4,1111122 
NERRS,ioos:station:NOAA.NERRS:gndbcwq:1,2012-07-19T01:00:00Z,30.3836,-88.4364,0.0,9.9,1111122 
NERRS,ioos:station:NOAA.NERRS:gndbcwq:1,2012-07-19T02:00:00Z,30.3836,-88.4364,0.0,11.1,1111122 
NERRS,ioos:station:NOAA.NERRS:gndbcwq:1,2012-07-19T03:00:00Z,30.3836,-88.4364,0.0,9.5,1111122 
NERRS,ioos:station:NOAA.NERRS:gndbcwq:1,2012-07-19T04:00:00Z,30.3836,-88.4364,0.0,10.3,1111122 
NERRS,ioos:station:NOAA.NERRS:gndbcwq:1,2012-07-19T05:00:00Z,30.3836,-88.4364,0.0,10.7,1111122 
NERRS,ioos:station:NOAA.NERRS:gndbcwq:1,2012-07-19T06:00:00Z,30.3836,-88.4364,0.0,11.3,1111122 
NERRS,ioos:station:NOAA.NERRS:gndbcwq:1,2012-07-19T07:00:00Z,30.3836,-88.4364,0.0,11.7,1111122 
NERRS,ioos:station:NOAA.NERRS:gndbcwq:1,2012-07-19T08:00:00Z,30.3836,-88.4364,0.0,11.0,1111122 
NERRS,ioos:station:NOAA.NERRS:gndbcwq:1,2012-07-19T09:00:00Z,30.3836,-88.4364,0.0,11.7,1111122 
NERRS,ioos:station:NOAA.NERRS:gndbcwq:1,2012-07-19T10:00:00Z,30.3836,-88.4364,0.0,12.7,1111122 
NERRS,ioos:station:NOAA.NERRS:gndbcwq:1,2012-07-19T11:00:00Z,30.3836,-88.4364,0.0,13.9,1111122 
NERRS,ioos:station:NOAA.NERRS:gndbcwq:1,2012-07-19T12:00:00Z,30.3836,-88.4364,0.0,16.5,1111122 
NERRS,ioos:station:NOAA.NERRS:gndbcwq:1,2012-07-19T13:00:00Z,30.3836,-88.4364,0.0,16.8,1111122 
NERRS,ioos:station:NOAA.NERRS:gndbcwq:1,2012-07-19T14:00:00Z,30.3836,-88.4364,0.0,20.5,1111122 
NERRS,ioos:station:NOAA.NERRS:gndbcwq:1,2012-07-19T15:00:00Z,30.3836,-88.4364,0.0,22.3,1111122 
NERRS,ioos:station:NOAA.NERRS:gndbcwq:1,2012-07-19T16:00:00Z,30.3836,-88.4364,0.0,22.3,1111122 
NERRS,ioos:station:NOAA.NERRS:gndbcwq:1,2012-07-19T17:00:00Z,30.3836,-88.4364,0.0,21.6,1111122 
NERRS,ioos:station:NOAA.NERRS:gndbcwq:1,2012-07-19T18:00:00Z,30.3836,-88.4364,0.0,23.1,1111122 
NERRS,ioos:station:NOAA.NERRS:gndbcwq:1,2012-07-19T19:00:00Z,30.3836,-88.4364,0.0,15.8,1111122 
NERRS,ioos:station:NOAA.NERRS:gndbcwq:1,2012-07-19T20:00:00Z,30.3836,-88.4364,0.0,12.6,1111122 
NERRS,ioos:station:NOAA.NERRS:gndbcwq:1,2012-07-19T21:00:00Z,30.3836,-88.4364,0.0,11.1,1111122 
NERRS,ioos:station:NOAA.NERRS:gndbcwq:1,2012-07-19T22:00:00Z,30.3836,-88.4364,0.0,9.2,1111122 
NERRS,ioos:station:NOAA.NERRS:gndbcwq:1,2012-07-19T23:00:00Z,30.3836,-88.4364,0.0,7.7,1111122 
NERRS,ioos:station:NOAA.NERRS:gndbcwq:1,2012-07-20T00:00:00Z,30.3836,-88.4364,0.0,4.8,1111122 
NERRS,ioos:station:NOAA.NERRS:gndbcwq:1,2012-07-20T01:00:00Z,30.3836,-88.4364,0.0,2.8,1111122 
NERRS,ioos:station:NOAA.NERRS:gndbcwq:1,2012-07-20T02:00:00Z,30.3836,-88.4364,0.0,2.6,1111122 
NERRS,ioos:station:NOAA.NERRS:gndbcwq:1,2012-07-20T03:00:00Z,30.3836,-88.4364,0.0,2.4,1111122 
NERRS,ioos:station:NOAA.NERRS:gndbcwq:1,2012-07-20T04:00:00Z,30.3836,-88.4364,0.0,2.4,1111122 
NERRS,ioos:station:NOAA.NERRS:gndbcwq:1,2012-07-20T05:00:00Z,30.3836,-88.4364,0.0,2.1,1111122 
NERRS,ioos:station:NOAA.NERRS:gndbcwq:1,2012-07-20T06:00:00Z,30.3836,-88.4364,0.0,1.8,1111122 
NERRS,ioos:station:NOAA.NERRS:gndbcwq:1,2012-07-20T07:00:00Z,30.3836,-88.4364,0.0,1.9,1111122 
NERRS,ioos:station:NOAA.NERRS:gndbcwq:1,2012-07-20T08:00:00Z,30.3836,-88.4364,0.0,1.9,1111122 
NERRS,ioos:station:NOAA.NERRS:gndbcwq:1,2012-07-20T09:00:00Z,30.3836,-88.4364,0.0,1.7,1111122 
NERRS,ioos:station:NOAA.NERRS:gndbcwq:1,2012-07-20T10:00:00Z,30.3836,-88.4364,0.0,1.7,1111122 
NERRS,ioos:station:NOAA.NERRS:gndbcwq:1,2012-07-20T11:00:00Z,30.3836,-88.4364,0.0,1.9,1111122 
NERRS,ioos:station:NOAA.NERRS:gndbcwq:1,2012-07-20T12:00:00Z,30.3836,-88.4364,0.0,1.7,1111122 